TimeCDT,TemperatureF,Dew PointF,Humidity,Sea Level PressureIn,VisibilityMPH,Wind Direction,Wind SpeedMPH,Gust SpeedMPH,PrecipitationIn,Events,Conditions,WindDirDegrees,DateUTC
12:56 AM,39.0,33.1,79,29.53,-9999.0,NNW,10.4,-,N/A,,Unknown,340,2013-11-01 05:56:00
1:56 AM,39.0,33.1,79,29.55,-9999.0,NNW,10.4,-,N/A,,Unknown,330,2013-11-01 06:56:00
2:56 AM,36.0,32.0,86,29.56,-9999.0,NW,9.2,-,N/A,,Unknown,310,2013-11-01 07:56:00
3:56 AM,37.0,33.1,86,29.57,-9999.0,NW,8.1,-,N/A,,Unknown,320,2013-11-01 08:56:00
4:56 AM,36.0,32.0,86,29.59,-9999.0,WNW,5.8,-,N/A,,Unknown,300,2013-11-01 09:56:00
5:56 AM,37.0,33.1,86,29.60,-9999.0,West,6.9,-,N/A,,Unknown,280,2013-11-01 10:56:00
6:56 AM,37.0,33.1,86,29.61,-9999.0,WNW,5.8,-,N/A,,Unknown,300,2013-11-01 11:56:00
7:56 AM,37.9,32.0,79,29.62,-9999.0,NW,10.4,-,N/A,,Unknown,320,2013-11-01 12:56:00
8:56 AM,39.9,34.0,79,29.64,-9999.0,NW,12.7,-,N/A,,Unknown,310,2013-11-01 13:56:00
9:56 AM,44.1,35.1,71,29.65,-9999.0,NW,17.3,26.5,N/A,,Unknown,310,2013-11-01 14:56:00
10:56 AM,46.0,36.0,68,29.65,-9999.0,NW,17.3,26.5,N/A,,Unknown,320,2013-11-01 15:56:00
11:56 AM,45.0,37.0,74,29.68,-9999.0,NNW,19.6,25.3,N/A,,Unknown,330,2013-11-01 16:56:00
12:56 PM,45.0,37.0,74,29.70,-9999.0,NW,13.8,-,N/A,,Unknown,320,2013-11-01 17:56:00
1:56 PM,44.1,37.9,79,29.71,-9999.0,NNW,17.3,25.3,N/A,,Unknown,340,2013-11-01 18:56:00
2:56 PM,43.0,39.0,86,29.74,-9999.0,NNW,17.3,-,N/A,,Unknown,330,2013-11-01 19:56:00
3:56 PM,43.0,39.9,89,29.78,-9999.0,NNW,13.8,-,N/A,,Unknown,340,2013-11-01 20:56:00
4:56 PM,45.0,39.9,82,29.81,-9999.0,NNW,13.8,-,N/A,,Unknown,340,2013-11-01 21:56:00
5:56 PM,43.0,39.9,89,29.84,-9999.0,NNW,13.8,-,0.01,,Unknown,330,2013-11-01 22:56:00
6:56 PM,44.1,39.0,82,29.87,-9999.0,NNW,13.8,23.0,N/A,,Unknown,330,2013-11-01 23:56:00
7:56 PM,43.0,37.0,80,29.90,-9999.0,NNW,15.0,-,N/A,,Unknown,340,2013-11-02 00:56:00
8:56 PM,42.1,37.9,85,29.92,-9999.0,NNW,17.3,26.5,N/A,,Unknown,340,2013-11-02 01:56:00
9:56 PM,42.1,37.0,82,29.94,-9999.0,NNW,16.1,23.0,N/A,,Unknown,340,2013-11-02 02:56:00
10:56 PM,41.0,36.0,82,29.96,-9999.0,NNW,13.8,-,N/A,,Unknown,340,2013-11-02 03:56:00
11:56 PM,39.0,34.0,82,29.98,-9999.0,NNW,10.4,-,N/A,,Unknown,330,2013-11-02 04:56:00